DW7621 Ede NL current weather conditions

sailwx.info

Wind from 097

Air temperature 10.0° C
Dewpoint 6.5° C

Last reported at 2018-Nov-16 15:00 UTC.
Time now 2018-Nov-16 15:41 UTC

Location: N 52°03' E 005°39'.
View on Google Maps.

See reports from other nearby stations

  
Tides and Currents Weather Stations Pressure Air Temp Water Temp Dewpoint Dewpoint Depression Visibility Wind Speed Wind Dir Waves Ship Positions
date/time (UTC)wind fromknots sea level pressurealtimeterstation pressurevisibilityair tempwater tempwave heightnotes
2018-Nov-16 15:00 097 10.0
2018-Nov-16 14:45 101 0 gusting 4 10.0
2018-Nov-16 14:31 097 0 gusting 6 10.0
2018-Nov-16 14:15 127 0 gusting 4 10.0
2018-Nov-16 14:00 128 1 gusting 6 10.0
2018-Nov-16 13:45 126 0 gusting 5 10.0
2018-Nov-16 13:30 093 3 gusting 6 10.0
2018-Nov-16 13:15 118 1 gusting 6 10.0
2018-Nov-16 13:00 114 1 gusting 6 9.4
2018-Nov-16 12:45 109 0 gusting 6 9.4
2018-Nov-16 12:30 097 3 gusting 6 9.4
2018-Nov-16 12:15 161 0 gusting 4 9.4
2018-Nov-16 12:00 179 8.9
2018-Nov-16 11:45 150 2 gusting 5 8.9
2018-Nov-16 11:31 161 2 gusting 6 8.3
2018-Nov-16 11:16 147 0 gusting 6 8.3
2018-Nov-16 11:01 121 0 gusting 4 8.3
2018-Nov-16 10:46 195 2 gusting 6 7.2
2018-Nov-16 10:31 139 0 gusting 4 7.2
2018-Nov-16 10:16 138 0 gusting 3 6.1
2018-Nov-16 10:01 135 0 gusting 4 5.6
2018-Nov-16 09:46 135 0 gusting 3 5.0
2018-Nov-16 09:31 135 2 gusting 6 5.0
2018-Nov-16 09:16 135 0 gusting 5 5.0
2018-Nov-16 09:00 135 0 gusting 3 5.0
2018-Nov-16 08:45 135 1 gusting 4 4.4
2018-Nov-16 08:30 135 3.9
2018-Nov-16 08:15 135 0 gusting 2 3.9
2018-Nov-16 08:00 135 3.9
2018-Nov-16 07:45 135 3.9
2018-Nov-16 07:30 136 3.3
2018-Nov-16 07:15 135 2.8
2018-Nov-16 07:00 136 2.8
2018-Nov-16 06:45 135 2.8
2018-Nov-16 06:30 135 2.8
2018-Nov-16 06:15 136 1 gusting 4 2.8
2018-Nov-16 06:00 136 1 gusting 6 3.3
2018-Nov-16 05:45 135 0 gusting 2 3.9
2018-Nov-16 05:30 135 3.9
2018-Nov-16 05:16 135 4.4
2018-Nov-16 05:02 135 3.9
2018-Nov-16 04:46 137 3.9
2018-Nov-16 04:31 140 0 gusting 3 3.9
2018-Nov-16 04:16 139 0 gusting 3 3.9
2018-Nov-16 04:01 139 3.3
2018-Nov-16 03:46 139 2.8
2018-Nov-16 03:31 139 2.8
2018-Nov-16 03:16 139 3.3
2018-Nov-16 03:00 140 3.3
2018-Nov-16 02:46 140 3.3
2018-Nov-16 02:30 140 3.3
2018-Nov-16 02:16 140 3.3
2018-Nov-16 02:01 140 3.3
2018-Nov-16 01:46 140 3.9
2018-Nov-16 01:31 140 3.9
2018-Nov-16 01:16 140 3.9
2018-Nov-16 01:01 140 3.9
2018-Nov-16 00:46 140 3.9
2018-Nov-16 00:31 140 3.9
2018-Nov-16 00:16 140 4.4
2018-Nov-16 00:00 140 4.4
2018-Nov-15 23:46 140 0 gusting 3 4.4
2018-Nov-15 23:30 140 4.4
2018-Nov-15 23:15 140 4.4
2018-Nov-15 23:00 140 0 gusting 4 5.0
2018-Nov-15 22:46 140 5.0
2018-Nov-15 22:30 140 0 gusting 4 5.0
2018-Nov-15 22:15 140 5.0
2018-Nov-15 22:00 140 5.6
2018-Nov-15 21:45 140 5.6
2018-Nov-15 21:30 138 5.6
2018-Nov-15 21:15 138 0 gusting 4 6.1
2018-Nov-15 21:01 138 0 gusting 4 6.1
2018-Nov-15 20:45 138 0 gusting 4 6.1
2018-Nov-15 20:30 138 6.7
2018-Nov-15 20:15 138 0 gusting 3 6.7
2018-Nov-15 20:00 138 7.2
2018-Nov-15 19:45 138 0 gusting 2 7.2
2018-Nov-15 19:30 138 7.8
2018-Nov-15 19:15 138 7.8
2018-Nov-15 19:00 138 0 gusting 3 7.8
2018-Nov-15 18:45 138 8.3
2018-Nov-15 18:30 138 8.3
2018-Nov-15 18:15 138 0 gusting 4 8.9
2018-Nov-15 18:00 138 8.9
2018-Nov-15 17:45 138 8.9
2018-Nov-15 17:30 138 9.4
2018-Nov-15 17:15 138 9.4
2018-Nov-15 17:00 138 0 gusting 4 10.0
2018-Nov-15 16:46 138 10.0
2018-Nov-15 16:30 138 10.0
2018-Nov-15 16:15 137 0 gusting 4 10.6
2018-Nov-15 16:00 138 0 gusting 4 10.6
2018-Nov-15 15:45 138 0 gusting 4 11.1
2018-Nov-15 15:30 138 1 gusting 5 11.7
2018-Nov-15 15:15 138 1 gusting 6 12.2
2018-Nov-15 15:00 152 0 gusting 3 12.8
2018-Nov-15 14:45 152 1 gusting 5 12.8
2018-Nov-15 14:30 156 0 gusting 3 13.3
2018-Nov-15 14:15 156 0 gusting 2 13.9
2018-Nov-15 14:00 156 0 gusting 4 13.9
2018-Nov-15 13:45 156 0 gusting 3 13.9
2018-Nov-15 13:30 156 13.9
2018-Nov-15 13:15 156 0 gusting 4 14.4
2018-Nov-15 13:00 155 13.9
2018-Nov-15 12:45 158 0 gusting 4 13.9
2018-Nov-15 12:30 160 0 gusting 3 13.9
2018-Nov-15 12:15 161 13.3
2018-Nov-15 12:01 160 0 gusting 2 13.3
2018-Nov-15 11:47 160 0 gusting 4 12.8
2018-Nov-15 11:32 161 0 gusting 4 12.2
2018-Nov-15 11:16 168 1 gusting 4 11.7
2018-Nov-15 11:01 160 11.1
2018-Nov-15 10:46 164 0 gusting 4 11.1
2018-Nov-15 10:31 166 10.6
2018-Nov-15 10:16 166 1 gusting 5 10.0
2018-Nov-15 10:01 168 9.4
2018-Nov-15 09:45 169 0 gusting 5 9.4
2018-Nov-15 09:30 171 8.9
2018-Nov-15 09:15 171 0 gusting 5 8.3
2018-Nov-15 09:00 170 1 gusting 5 7.8
2018-Nov-15 08:45 173 7.2
2018-Nov-15 08:30 174 7.2
2018-Nov-15 08:15 174 6.7
2018-Nov-15 08:00 174 6.1
2018-Nov-15 07:45 175 6.1
2018-Nov-15 07:31 173 5.6
2018-Nov-15 07:16 174 5.6
2018-Nov-15 07:01 174 5.6
2018-Nov-15 06:46 176 5.0
2018-Nov-15 06:31 171 5.6
2018-Nov-15 06:17 174 5.6
2018-Nov-15 06:01 173 5.0
2018-Nov-15 05:46 173 5.0
2018-Nov-15 05:33 172 5.0
2018-Nov-15 05:16 173 5.0
2018-Nov-15 05:01 173 5.0
2018-Nov-15 04:46 172 5.6
2018-Nov-15 04:31 172 5.6
2018-Nov-15 04:17 172 5.6
2018-Nov-15 04:01 172 5.6
2018-Nov-15 03:46 175 5.6
2018-Nov-15 03:31 173 5.6
2018-Nov-15 03:16 175 5.6
2018-Nov-15 03:01 175 5.6
2018-Nov-15 02:45 174 6.1
2018-Nov-15 02:31 173 6.1
2018-Nov-15 02:15 174 6.1
2018-Nov-15 02:01 174 6.1
2018-Nov-15 01:45 174 6.1
2018-Nov-15 01:30 174 6.7
2018-Nov-15 01:15 174 6.7
2018-Nov-15 01:00 174 6.7
2018-Nov-15 00:45 174 6.7
2018-Nov-15 00:30 174 7.2
2018-Nov-15 00:15 174 7.2
2018-Nov-15 00:00 174 7.2
2018-Nov-14 23:45 174 0 gusting 5 7.8
2018-Nov-14 23:30 173 0 gusting 3 7.8
2018-Nov-14 23:15 173 7.8
2018-Nov-14 23:00 176 7.8
2018-Nov-14 22:45 176 7.8
2018-Nov-14 22:30 176 7.8
2018-Nov-14 22:15 176 7.2
2018-Nov-14 22:00 177 7.8
2018-Nov-14 21:45 176 7.8
2018-Nov-14 21:30 176 8.3
2018-Nov-14 21:15 176 8.3
2018-Nov-14 21:00 176 7.8
2018-Nov-14 20:45 176 7.2
2018-Nov-14 20:30 176 7.2
2018-Nov-14 20:15 176 7.8
2018-Nov-14 20:00 176 8.3
2018-Nov-14 19:45 176 8.3
2018-Nov-14 19:30 176 8.9
2018-Nov-14 19:15 176 8.9
2018-Nov-14 19:00 176 8.9
2018-Nov-14 18:45 176 8.9
2018-Nov-14 18:30 176 9.4
2018-Nov-14 18:15 176 0 gusting 2 9.4
2018-Nov-14 18:00 178 9.4
2018-Nov-14 17:45 177 10.0
2018-Nov-14 17:30 177 10.0
2018-Nov-14 17:15 177 10.6
2018-Nov-14 17:01 178 10.6
2018-Nov-14 16:45 178 10.6
2018-Nov-14 16:30 178 0 gusting 3 11.1
2018-Nov-14 16:15 178 11.1
2018-Nov-14 16:00 178 11.7
2018-Nov-14 15:45 181 11.7
2018-Nov-14 15:30 178 0 gusting 4 12.2
2018-Nov-14 15:15 169 0 gusting 5 12.2
2018-Nov-14 15:00 186 0 gusting 6 12.8